Погода в Смоленске

Погода в Смоленске : погода сейчас, прогноз погоды и архив. Всё, что Вы хотите узнать о погоде в Смоленске!

Хотите узнать прогноз погоды в Смоленске? Тогда Вам сюда: Погода в Смоленске

Поиск расширенной информации на нашем сайте:

Другие новости

Новости СМИ2

Главная страница сайта

Новости сайта

02.10.2013

Напоминаем, что на нашем новом сайте вы можете получить высокодетализированные прогнозы погоды по пунктам России, СНГ и мира (включающие важные для авиации метеовеличины, такие как направление и скорость ветра, видимость, явления погоды, количество и форма облачности, нижняя и верхняя граница облачности), а также ознакомиться с разнообразными материалами по авиационной метеорологии и подборкой полезных ссылок на эту тему.

Сайт Метеоцентр.Азия посвящён разработке технологий оптимизации авиаметеорологического обслуживания, включая проектирование и перспективное создание нескольких автоматизированных авиаметеорологических систем:
- система выпуска высокодетальных прогностических карт явлений погоды для нижнего воздушного пространства по России и ближнему зарубежью;
- система верификации прогнозов TAF (выпускаемых синоптиками официальных АМСГ РФ и ближнего зарубежья) и AUTOTAF (выпускаемых сайтом Метеоцентр.Азия) - выявление ошибок, онлайн-сопоставление с фактической погодой METAR, автоматическое внесение коррективов в прогнозы при резком отклонении фактической погоды от прогноза, подсчёт оправдываемости прогнозов по элементам и в целом;
- система обработки, анализа и отображения авиаметеорологической информации для применения провайдерами метеорологической информации.

Рекомендуем: белый кот

Погода в Смоленске - сегодня

Время (UTC), дата Ветер
(°,м/с) 
Видим.   Явления Облачность Т
(°С)
Тd
(°С)
f(%) Тe
(°С)
Pmin
(гПа)
dP
(гПа)
Po
(мм)
O2
(г/м3)
Тmin Tmax R s Состояние
почвы
00 22.05.17 350 (С) 10 км    ясно 
+7.4 +2.2 70 +8  1015.5  0.8  740  290           
03 22.05.17 310 (СЗ) 10 км    ясно 
+5.8 +3.2 83 +7  1016.2  0.5  740  292  +4.2         
06 22.05.17 290 (З) 98  35000 м    8/8 1500 м 
+13 +2.3 48 +7  1015.8  0.3  740  284  +4.2        сухая 
09 22.05.17 320 (СЗ) 20000 м    3/3 1500 м 
[Cu hum]
+17.4 +1.7 35 +18  1015.1  -0.2  740  280           
12 22.05.17 280 (З) 20000 м    3/3 1000 м 
[Cu hum]
+19.5 +1 29 +21  1013.8  -1.1  739  278           
15 22.05.17 270 (З) 20000 м    3/3 1000 м 
[Cu hum]
+20.1 +0.3 27 +20  1012.7  -1  739  277           
18 22.05.17 250 (З) 10 км    3/3 1000 м 
[Sc diur, vesp]
+13.3 +5 57 +15  1013.1  -0.2  739  283    +21       
21 22.05.17 290 (З) 10 км    ясно 
+11.6 +6.4 70 +13  1013.6  0.3  739  284           
00 23.05.17 тихо ()   10 км    8/8 600 м 
[Sc]
+9.7 +7.2 84 +10  1013.5  -0.3  739  286           
03 23.05.17 290 (З) 10 км    6/0 верхняя 
[Ci fib]
+10 +7.7 86 +11  1013.5  739  286  +7.8         
06 23.05.17 260 (З) 20000 м    8/0 верхняя 
[Ci fib]
+16 +9 63 +17  1012.9  739  280  +7.8        сухая 
09 23.05.17 290 (З) 20000 м    8/3 1000 м верхняя 
[Cu hum|Ci fib]
+19.2 +3.5 35 +20  1012.8  0.2  739  278           
12 23.05.17 280 (З) 20000 м    6/3 1000 м верхняя 
[Cu hum|Ci fib]
+20.8 +3.4 32 +21  1012  -0.7  738  276           
15 23.05.17 290 (З) 20000 м    4/0 верхняя 
[Ci fib]
+21.1 +3.4 31 +21  1011.3  -0.7  738  275           
18 23.05.17 тихо ()   10 км    ясно 
+13.9 +5.5 57 +14  1012.3  0.3  738  282    +21.9       
21 23.05.17 тихо ()   10 км    ясно 
+9.2 +6.4 83 +9  1013.1  0.4  738  287           
00 24.05.17 тихо ()   10 км    ясно 
+7.6 +5.9 89 +8  1012.8  -0.5  738  288           
03 24.05.17 тихо ()   10 км    4/0 верхняя 
[Ci fib]
+9.7 +7.3 85 +10  1012.2  -0.4  738  286  +6.8         
06 24.05.17 270 (З) 10 км    9/0 средняя, верхняя 
[Ac trans|Ci fib]
+17 +7.8 55 +18  1011.4  738  278  +6.8        сухая 
09 24.05.17 250 (З) 10 км    9/4 1000 м верхняя 
[Cu med, cong|Ci fib]
+20.4 +3.4 33 +20  1011.6  0.5  738  276           
12 24.05.17 250 (З) 10 км    9/5 1000 м верхняя 
[Cu med, cong|Ci]
+20.4 +5.9 39 +20  1011.4  -0.3  738  276           
15 24.05.17 230 (ЮЗ) 10 км    9/4 600 м кучево-дожд., верхняя 
[Cb cap|Ci]
+19 +9.1 53 +20  1011.3  -0.1  738  276           
18 24.05.17 200 (Ю) 10 км    9/3 1000 м верхняя 
[Sc|Ci fib]
+14.8 +10.5 75 +18  1012.5  0.8  738  280    +20.9       
21 24.05.17 тихо ()   10 км    ясно 
+10.6 +9.3 92 +11  1012.8  -0.2  738  285           
00 25.05.17 180 (Ю) 10 км    6/0 верхняя 
[Ci fib]
+10.8 +9.8 94 +13  1012.4  -0.3  738  284           
Время (UTC), дата Ветер
(°,м/с) 
Видим.   Явления Облачность Т
(°С)
Тd
(°С)
f(%) Тe
(°С)
Pmin
(гПа)
dP
(гПа)
Po
(мм)
O2
(г/м3)
Тmin Tmax R s Состояние
почвы

Для получения пояснительной информации подведите курсор к названию столбца.

ПОГОДА в Смоленске - архив

Всё, что Вы хотите узнать о погоде в Смоленске - удобно и подробно!

Выберите нужную дату (начиная с 1 января 2015* года) и нажмите кнопку "Найти".
Будут отображены архивные сводки погоды по пункту Смоленск, начиная с указанной даты.


Отображать данные в формате CSV (для использования в таблицах Excel)


Внимание! Наш архив погоды предназначен исключительно для личного некоммерческого использования в познавательных целях. Если Вам необходимы официальные справки о состоянии погоды (для производственных, юридических, коммерческих и т.п. целей), обращайтесь в органы Росгидромета.

*Примечание: данная дата относится к архиву по метеостанциям СССР (Россия, СНГ, Балтия).
Архив по метеостанциям Зарубежной Европы и Азии (кроме Китая) хранится 10 дней, по другим регионам земного шара (Китай, Африка, Америка, Австралия, Океания) - 1 день.

Смоленск - район местоположения метеостанции


Название, широта, долгота, высота метеостанции:
Смоленск 54.8°ш. 32.1°д. 239 м над ур. моря [Российская Федерация]

Дополнительная информация

В oтличие oт бoльшинства пoгoдных сайтoв мы публикуем пoдрoбную метеoинфoрмацию в детальнoм прoфессиoнальнoм фoрмате.

Характеристики температуры и влажнoсти вoздуха измеряются на высoте 2 м в тени вдали oт зданий и деревьев.
Скoрoсть ветра измеряется на высoте 10 м (на урoвне рoста челoвека скoрoсть ветра ниже в 1.5-2 раза). Если метеoстанция нахoдится в гoрoде или в лесу, тo скoрoсть ветра занижена на 2-4 м/с пo сравнению с oткрытым местoм. Скoрoсть ветра над акватoриями крупных рек и oзёр, а также на вершинах хoлмoв на 2-5 м/с выше, чем в oбычных услoвиях.
Атмoсфернoе давление в разных тoчках местнoсти мoжет значительнo oтличаться oт давления на метеoстанции, в зависимoсти oт услoвий рельефа (при пoдъёме на 10 м давление пoнижается примернo на 1 мм рт.ст.).